WAT1820 KSNA-KMKC

Flight info

Callsign WAT1820
Flight time 2h 33m
Altitude 37000
Route PIGGN3 AVRRY LANCY J134 CIM Q176 VARNR EMP JHAWK8
Aircraft B38M/M-SDE1FGHILORVWXY/HB1

Departure

Time 2026-04-26 20:14
Airport John Wayne Orange County International Airport (KSNA)

Arrival

Time 2026-04-26 22:47
Airport Charles B. Wheeler Downtown Airport (KMKC)
Time Latitude Longitude Altitude Speed Heading
2026-04-26 19:41 33.67455 -117.86493 57 ft 0 kts 62°
2026-04-26 20:01 33.67451 -117.86501 58 ft 3 kts 62°
2026-04-26 20:01 33.67441 -117.86520 52 ft 3 kts 30°
2026-04-26 20:01 33.67424 -117.86523 51 ft 2 kts 330°
2026-04-26 20:01 33.67423 -117.86522 52 ft 0 kts 330°
2026-04-26 20:04 33.67432 -117.86528 50 ft 3 kts 327°
2026-04-26 20:04 33.67443 -117.86537 58 ft 0 kts 330°
2026-04-26 20:05 33.67452 -117.86543 56 ft 2 kts 330°
2026-04-26 20:05 33.67462 -117.86549 52 ft 0 kts 330°
2026-04-26 20:06 33.67463 -117.86550 52 ft 0 kts 330°
2026-04-26 20:07 33.67464 -117.86550 52 ft 1 kts 330°
2026-04-26 20:07 33.67478 -117.86560 55 ft 4 kts 330°
2026-04-26 20:07 33.67513 -117.86575 53 ft 7 kts 356°
2026-04-26 20:07 33.67567 -117.86550 57 ft 10 kts 28°
2026-04-26 20:08 33.67637 -117.86505 54 ft 13 kts 28°
2026-04-26 20:08 33.67722 -117.86452 57 ft 13 kts 27°
2026-04-26 20:08 33.67787 -117.86412 54 ft 12 kts 27°
2026-04-26 20:08 33.67863 -117.86364 54 ft 12 kts 27°
2026-04-26 20:09 33.67935 -117.86318 55 ft 11 kts 27°
2026-04-26 20:09 33.67991 -117.86283 51 ft 8 kts 27°
2026-04-26 20:09 33.68045 -117.86280 52 ft 9 kts 326°
2026-04-26 20:09 33.68083 -117.86349 55 ft 11 kts 298°
2026-04-26 20:10 33.68110 -117.86409 54 ft 4 kts 298°
2026-04-26 20:10 33.68116 -117.86423 57 ft 0 kts 298°
2026-04-26 20:10 33.68117 -117.86425 57 ft 0 kts 298°
2026-04-26 20:12 33.68121 -117.86435 57 ft 3 kts 300°
2026-04-26 20:13 33.68143 -117.86483 52 ft 12 kts 287°
2026-04-26 20:13 33.68000 -117.86616 54 ft 60 kts 207°
2026-04-26 20:13 33.67387 -117.87014 56 ft 136 kts 207°
2026-04-26 20:13 33.66429 -117.87599 481 ft 161 kts 208°
2026-04-26 20:14 33.65454 -117.88211 1423 ft 162 kts 212°
2026-04-26 20:14 33.64418 -117.88855 2298 ft 170 kts 207°
2026-04-26 20:14 33.63246 -117.89200 3203 ft 179 kts 192°
2026-04-26 20:14 33.61930 -117.89349 3396 ft 198 kts 189°
2026-04-26 20:15 33.60516 -117.89518 3719 ft 213 kts 190°
2026-04-26 20:15 33.58955 -117.89409 3915 ft 239 kts 163°
2026-04-26 20:15 33.57641 -117.88144 3905 ft 251 kts 123°
2026-04-26 20:15 33.56934 -117.86232 4062 ft 256 kts 117°
2026-04-26 20:16 33.56016 -117.84396 4150 ft 257 kts 124°
2026-04-26 20:16 33.55021 -117.82587 4663 ft 259 kts 124°
2026-04-26 20:16 33.54014 -117.80742 5798 ft 272 kts 125°
2026-04-26 20:16 33.52951 -117.78790 6752 ft 286 kts 125°
2026-04-26 20:17 33.51842 -117.76748 7705 ft 297 kts 125°
2026-04-26 20:17 33.50718 -117.74673 8804 ft 303 kts 125°
2026-04-26 20:17 33.49580 -117.72492 9830 ft 314 kts 118°
2026-04-26 20:17 33.49103 -117.70826 10399 ft 324 kts 101°
2026-04-26 20:18 33.49375 -117.67216 11363 ft 337 kts 64°
2026-04-26 20:18 33.50514 -117.64740 12205 ft 343 kts 56°
2026-04-26 20:18 33.51730 -117.62220 12809 ft 352 kts 56°
2026-04-26 20:18 33.52952 -117.59658 12940 ft 352 kts 56°
2026-04-26 20:19 33.54167 -117.57103 12985 ft 352 kts 56°
2026-04-26 20:19 33.55378 -117.54558 12978 ft 351 kts 56°
2026-04-26 20:19 33.56597 -117.51991 13532 ft 354 kts 56°
2026-04-26 20:19 33.57754 -117.49406 14468 ft 359 kts 65°
2026-04-26 20:20 33.58264 -117.46444 15349 ft 367 kts 88°
2026-04-26 20:20 33.58204 -117.43382 16107 ft 375 kts 91°
2026-04-26 20:20 33.58134 -117.40236 16892 ft 379 kts 91°
2026-04-26 20:20 33.58057 -117.37048 17695 ft 384 kts 91°
2026-04-26 20:21 33.57978 -117.33822 18444 ft 389 kts 92°
2026-04-26 20:21 33.57896 -117.30560 19111 ft 393 kts 92°
2026-04-26 20:21 33.57812 -117.27260 19771 ft 398 kts 92°
2026-04-26 20:21 33.57829 -117.23960 20348 ft 404 kts 82°
2026-04-26 20:22 33.58468 -117.20659 20920 ft 409 kts 75°
2026-04-26 20:22 33.59170 -117.17310 21519 ft 415 kts 75°
2026-04-26 20:22 33.59884 -117.13926 22115 ft 420 kts 75°
2026-04-26 20:22 33.60610 -117.10507 22688 ft 425 kts 75°
2026-04-26 20:23 33.61339 -117.07086 23301 ft 430 kts 75°
2026-04-26 20:23 33.62085 -117.03581 23837 ft 435 kts 75°
2026-04-26 20:23 33.62752 -117.00026 24286 ft 439 kts 85°
2026-04-26 20:23 33.62776 -116.96363 24758 ft 441 kts 94°
2026-04-26 20:24 33.62699 -116.92654 25138 ft 447 kts 94°
2026-04-26 20:24 33.62618 -116.88908 25654 ft 450 kts 94°
2026-04-26 20:24 33.62527 -116.85179 26036 ft 455 kts 95°
2026-04-26 20:24 33.62430 -116.81373 26517 ft 458 kts 95°
2026-04-26 20:25 33.62329 -116.77534 26877 ft 463 kts 95°
2026-04-26 20:25 33.62261 -116.74915 27191 ft 465 kts 95°
2026-04-26 20:25 33.62122 -116.69735 27734 ft 472 kts 95°
2026-04-26 20:25 33.62015 -116.65776 28153 ft 476 kts 95°
2026-04-26 20:26 33.61906 -116.61780 28545 ft 480 kts 95°
2026-04-26 20:26 33.61794 -116.57760 28944 ft 485 kts 96°
2026-04-26 20:26 33.61680 -116.53705 29440 ft 487 kts 96°
2026-04-26 20:26 33.61566 -116.49635 29888 ft 489 kts 96°
2026-04-26 20:27 33.61447 -116.45523 30128 ft 496 kts 96°
2026-04-26 20:27 33.61328 -116.41427 30458 ft 498 kts 96°
2026-04-26 20:27 33.61207 -116.37258 30740 ft 502 kts 96°
2026-04-26 20:27 33.61091 -116.33063 31077 ft 505 kts 96°
2026-04-26 20:28 33.60986 -116.28837 31388 ft 507 kts 96°
2026-04-26 20:28 33.60876 -116.24596 31711 ft 510 kts 96°
2026-04-26 20:28 33.60764 -116.20324 31956 ft 515 kts 96°
2026-04-26 20:28 33.60650 -116.16009 32260 ft 518 kts 97°
2026-04-26 20:29 33.60533 -116.11676 32579 ft 521 kts 97°
2026-04-26 20:29 33.60434 -116.07314 32777 ft 527 kts 94°
2026-04-26 20:29 33.60903 -116.02890 32947 ft 539 kts 75°
2026-04-26 20:29 33.62140 -115.98703 33333 ft 540 kts 69°
2026-04-26 20:30 33.63457 -115.94454 33527 ft 546 kts 70°
2026-04-26 20:30 33.64794 -115.90171 33832 ft 548 kts 69°
2026-04-26 20:30 33.66148 -115.85875 34170 ft 550 kts 69°
2026-04-26 20:30 33.67505 -115.81576 34559 ft 549 kts 69°
2026-04-26 20:31 33.68862 -115.77273 34850 ft 551 kts 69°
2026-04-26 20:31 33.70220 -115.72957 35109 ft 553 kts 69°
2026-04-26 20:31 33.71565 -115.68678 35430 ft 554 kts 69°
2026-04-26 20:31 33.72928 -115.64339 35799 ft 553 kts 69°
2026-04-26 20:32 33.74284 -115.60012 36123 ft 553 kts 69°
2026-04-26 20:32 33.75745 -115.55739 36465 ft 552 kts 65°
2026-04-26 20:32 33.77280 -115.51514 36781 ft 552 kts 65°
2026-04-26 20:32 33.78799 -115.47266 36931 ft 553 kts 66°
2026-04-26 20:33 33.79798 -115.44451 36923 ft 552 kts 66°
2026-04-26 20:33 33.83286 -115.34600 36888 ft 550 kts 66°
2026-04-26 20:34 33.85779 -115.27543 36849 ft 549 kts 66°
2026-04-26 20:34 33.88762 -115.19074 36893 ft 550 kts 66°
2026-04-26 20:35 33.91744 -115.10588 36873 ft 549 kts 66°
2026-04-26 20:35 33.94714 -115.02112 36868 ft 550 kts 66°
2026-04-26 20:36 33.97670 -114.93656 36864 ft 550 kts 66°
2026-04-26 20:36 34.00633 -114.85158 36870 ft 550 kts 66°
2026-04-26 20:37 34.03592 -114.76645 36871 ft 550 kts 66°
2026-04-26 20:37 34.06544 -114.68130 36860 ft 550 kts 66°
2026-04-26 20:38 34.09472 -114.59664 36844 ft 550 kts 66°
2026-04-26 20:38 34.12414 -114.51134 36848 ft 550 kts 67°
2026-04-26 20:39 34.15352 -114.42591 36847 ft 550 kts 67°
2026-04-26 20:39 34.18268 -114.34090 36840 ft 550 kts 67°
2026-04-26 20:40 34.21190 -114.25550 36836 ft 549 kts 67°
2026-04-26 20:40 34.24111 -114.16993 36839 ft 549 kts 67°
2026-04-26 20:41 34.26910 -114.08453 36821 ft 549 kts 73°
2026-04-26 20:41 34.29269 -113.99665 36844 ft 551 kts 72°
2026-04-26 20:42 34.31702 -113.90869 36838 ft 550 kts 72°
2026-04-26 20:42 34.34121 -113.82118 36829 ft 546 kts 72°
2026-04-26 20:43 34.36524 -113.73405 36810 ft 546 kts 72°
2026-04-26 20:43 34.38907 -113.64733 36827 ft 546 kts 72°
2026-04-26 20:44 34.41301 -113.55997 36821 ft 546 kts 72°
2026-04-26 20:44 34.43686 -113.47265 36824 ft 546 kts 72°
2026-04-26 20:45 34.46068 -113.38516 36816 ft 545 kts 72°
2026-04-26 20:45 34.48428 -113.29819 36823 ft 546 kts 72°
2026-04-26 20:46 34.50795 -113.21070 36828 ft 545 kts 72°
2026-04-26 20:46 34.53153 -113.12324 36821 ft 545 kts 72°
2026-04-26 20:47 34.55506 -113.03569 36825 ft 546 kts 72°
2026-04-26 20:47 34.57858 -112.94794 36808 ft 546 kts 72°
2026-04-26 20:48 34.60197 -112.86035 36824 ft 545 kts 72°
2026-04-26 20:48 34.62513 -112.77334 36822 ft 546 kts 73°
2026-04-26 20:49 34.64848 -112.68534 36818 ft 547 kts 73°
2026-04-26 20:49 34.67177 -112.59733 36814 ft 547 kts 73°
2026-04-26 20:50 34.69501 -112.50924 36796 ft 547 kts 73°
2026-04-26 20:50 34.70567 -112.46489 36962 ft 546 kts 76°
2026-04-26 20:50 34.71564 -112.42086 36971 ft 548 kts 76°
2026-04-26 20:51 34.73622 -112.33152 36953 ft 550 kts 76°
2026-04-26 20:51 34.75688 -112.24175 36904 ft 550 kts 76°
2026-04-26 20:52 34.77742 -112.15222 36863 ft 550 kts 76°
2026-04-26 20:52 34.79778 -112.06314 36857 ft 550 kts 76°
2026-04-26 20:53 34.81833 -111.97289 36894 ft 551 kts 76°
2026-04-26 20:53 34.83874 -111.88295 36945 ft 551 kts 76°
2026-04-26 20:54 34.85893 -111.79363 36903 ft 551 kts 76°
2026-04-26 20:54 34.87919 -111.70368 36945 ft 550 kts 76°
2026-04-26 20:55 34.89934 -111.61383 36906 ft 549 kts 76°
2026-04-26 20:55 34.91943 -111.52393 36791 ft 549 kts 76°
2026-04-26 20:56 34.93937 -111.43448 36831 ft 550 kts 76°
2026-04-26 20:56 34.95930 -111.34431 37174 ft 549 kts 76°
2026-04-26 20:56 34.96922 -111.29928 37480 ft 549 kts 76°
2026-04-26 20:57 34.97913 -111.25422 37771 ft 549 kts 76°
2026-04-26 20:57 34.98889 -111.20979 38040 ft 549 kts 76°
2026-04-26 20:57 34.99874 -111.16479 38322 ft 549 kts 76°
2026-04-26 20:57 35.00860 -111.11972 38542 ft 548 kts 76°
2026-04-26 20:58 35.01839 -111.07486 38819 ft 545 kts 76°
2026-04-26 20:58 35.03784 -110.98555 38817 ft 540 kts 76°
2026-04-26 20:59 35.05695 -110.89732 38862 ft 541 kts 76°
2026-04-26 20:59 35.07619 -110.80825 38887 ft 541 kts 76°
2026-04-26 21:00 35.09531 -110.71937 38880 ft 548 kts 77°
2026-04-26 21:00 35.11468 -110.62899 38873 ft 550 kts 77°
2026-04-26 21:00 35.12434 -110.58379 38740 ft 550 kts 77°
2026-04-26 21:01 35.13399 -110.53854 38738 ft 550 kts 77°
2026-04-26 21:01 35.15323 -110.44802 38751 ft 550 kts 77°
2026-04-26 21:02 35.17252 -110.35694 38740 ft 554 kts 77°
2026-04-26 21:02 35.19177 -110.26568 38712 ft 554 kts 77°
2026-04-26 21:03 35.21089 -110.17468 38734 ft 555 kts 77°
2026-04-26 21:03 35.23006 -110.08306 38730 ft 554 kts 77°
2026-04-26 21:04 35.24898 -109.99223 38724 ft 554 kts 77°
2026-04-26 21:04 35.26795 -109.90082 38726 ft 554 kts 77°
2026-04-26 21:05 35.28686 -109.80934 38709 ft 554 kts 77°
2026-04-26 21:05 35.30569 -109.71789 38717 ft 553 kts 77°
2026-04-26 21:06 35.32443 -109.62645 38716 ft 552 kts 77°
2026-04-26 21:06 35.34298 -109.53558 38719 ft 552 kts 77°
2026-04-26 21:07 35.36158 -109.44406 38698 ft 552 kts 77°
2026-04-26 21:07 35.38007 -109.35273 38709 ft 551 kts 77°
2026-04-26 21:08 35.39844 -109.26160 38751 ft 551 kts 77°
2026-04-26 21:08 35.41667 -109.17079 38788 ft 551 kts 77°
2026-04-26 21:09 35.43496 -109.07937 38792 ft 550 kts 77°
2026-04-26 21:09 35.45307 -108.98856 38844 ft 551 kts 77°
2026-04-26 21:10 35.47122 -108.89713 38900 ft 551 kts 77°
2026-04-26 21:10 35.49395 -108.80735 38948 ft 550 kts 72°
2026-04-26 21:11 35.51797 -108.71888 38666 ft 546 kts 72°
2026-04-26 21:11 35.54206 -108.63026 38673 ft 547 kts 72°
2026-04-26 21:12 35.56595 -108.54201 38684 ft 547 kts 72°
2026-04-26 21:12 35.58994 -108.45324 38676 ft 546 kts 72°
2026-04-26 21:13 35.61366 -108.36507 38670 ft 545 kts 72°
2026-04-26 21:13 35.63747 -108.27633 38672 ft 546 kts 72°
2026-04-26 21:14 35.66121 -108.18751 38662 ft 546 kts 72°
2026-04-26 21:14 35.68478 -108.09906 38670 ft 547 kts 72°
2026-04-26 21:15 35.70844 -108.00999 38670 ft 546 kts 72°
2026-04-26 21:15 35.73197 -107.92106 38678 ft 546 kts 72°
2026-04-26 21:16 35.75532 -107.83253 38673 ft 546 kts 72°
2026-04-26 21:16 35.77875 -107.74340 38669 ft 546 kts 72°
2026-04-26 21:17 35.80200 -107.65468 38675 ft 546 kts 72°
2026-04-26 21:17 35.82531 -107.56541 38637 ft 546 kts 73°
2026-04-26 21:18 35.84840 -107.47665 38690 ft 547 kts 73°
2026-04-26 21:18 35.87158 -107.38727 38671 ft 546 kts 73°
2026-04-26 21:19 35.89472 -107.29774 38678 ft 547 kts 73°
2026-04-26 21:19 35.91769 -107.20853 38674 ft 547 kts 73°
2026-04-26 21:20 35.94064 -107.11912 38677 ft 546 kts 73°
2026-04-26 21:20 35.96342 -107.03004 38679 ft 547 kts 74°
2026-04-26 21:21 35.98630 -106.94029 38674 ft 548 kts 74°
2026-04-26 21:21 36.00527 -106.86560 38678 ft 548 kts 74°
2026-04-26 21:22 36.02807 -106.77552 38640 ft 548 kts 74°
2026-04-26 21:22 36.05067 -106.68604 38643 ft 548 kts 74°
2026-04-26 21:23 36.08454 -106.55123 38687 ft 543 kts 74°
2026-04-26 21:23 36.10674 -106.46246 38717 ft 545 kts 74°
2026-04-26 21:24 36.12914 -106.37265 38658 ft 546 kts 74°
2026-04-26 21:24 36.15133 -106.28327 38768 ft 545 kts 73°
2026-04-26 21:25 36.17342 -106.19399 38633 ft 543 kts 74°
2026-04-26 21:25 36.19552 -106.10437 38647 ft 545 kts 74°
2026-04-26 21:26 36.21745 -106.01510 38629 ft 544 kts 74°
2026-04-26 21:26 36.23947 -105.92514 38630 ft 545 kts 74°
2026-04-26 21:27 36.26148 -105.83491 38626 ft 545 kts 74°
2026-04-26 21:27 36.28328 -105.74522 38659 ft 546 kts 74°
2026-04-26 21:28 36.30503 -105.65540 38680 ft 545 kts 74°
2026-04-26 21:28 36.32688 -105.56489 38731 ft 547 kts 74°
2026-04-26 21:29 36.34863 -105.47437 38823 ft 546 kts 74°
2026-04-26 21:29 36.37014 -105.38459 38878 ft 546 kts 75°
2026-04-26 21:30 36.39177 -105.29394 38874 ft 546 kts 75°
2026-04-26 21:30 36.41309 -105.20433 38909 ft 543 kts 75°
2026-04-26 21:31 36.43439 -105.11451 38842 ft 541 kts 75°
2026-04-26 21:31 36.45559 -105.02482 38764 ft 539 kts 74°
2026-04-26 21:32 36.46613 -104.98007 38574 ft 539 kts 75°
2026-04-26 21:32 36.47654 -104.93582 38560 ft 540 kts 75°
2026-04-26 21:32 36.49522 -104.84489 38561 ft 540 kts 82°
2026-04-26 21:33 36.50881 -104.75332 38555 ft 541 kts 82°
2026-04-26 21:33 36.52226 -104.66122 38559 ft 541 kts 82°
2026-04-26 21:34 36.53562 -104.56910 38536 ft 541 kts 82°
2026-04-26 21:34 36.54890 -104.47701 38531 ft 541 kts 82°
2026-04-26 21:35 36.56205 -104.38529 38530 ft 541 kts 82°
2026-04-26 21:35 36.56866 -104.33901 38658 ft 541 kts 82°
2026-04-26 21:35 36.57522 -104.29293 38640 ft 541 kts 82°
2026-04-26 21:36 36.58833 -104.20048 38602 ft 541 kts 82°
2026-04-26 21:36 36.60124 -104.10882 38557 ft 540 kts 82°
2026-04-26 21:37 36.61414 -104.01683 38566 ft 540 kts 82°
2026-04-26 21:37 36.62702 -103.92438 38570 ft 540 kts 82°
2026-04-26 21:38 36.63982 -103.83201 38543 ft 540 kts 82°
2026-04-26 21:38 36.65251 -103.73983 38576 ft 540 kts 82°
2026-04-26 21:39 36.66506 -103.64811 38581 ft 539 kts 82°
2026-04-26 21:39 36.67758 -103.55608 38585 ft 539 kts 82°
2026-04-26 21:40 36.69006 -103.46392 38570 ft 539 kts 82°
2026-04-26 21:40 36.70248 -103.37147 38597 ft 540 kts 82°
2026-04-26 21:41 36.71472 -103.27985 38591 ft 539 kts 82°
2026-04-26 21:41 36.72702 -103.18739 38587 ft 540 kts 82°
2026-04-26 21:42 36.73967 -103.09493 38587 ft 541 kts 80°
2026-04-26 21:42 36.75391 -103.00292 38583 ft 544 kts 81°
2026-04-26 21:43 36.76798 -102.91018 38573 ft 544 kts 81°
2026-04-26 21:43 36.78199 -102.81734 38611 ft 544 kts 81°
2026-04-26 21:44 36.79587 -102.72483 38562 ft 542 kts 81°
2026-04-26 21:44 36.80961 -102.63271 38577 ft 542 kts 81°
2026-04-26 21:45 36.82335 -102.54014 38576 ft 542 kts 81°
2026-04-26 21:45 36.83702 -102.44745 38591 ft 542 kts 81°
2026-04-26 21:46 36.85062 -102.35480 38580 ft 543 kts 81°
2026-04-26 21:46 36.86417 -102.26192 38596 ft 543 kts 81°
2026-04-26 21:47 36.87764 -102.16908 38640 ft 543 kts 81°
2026-04-26 21:47 36.89099 -102.07650 38666 ft 543 kts 81°
2026-04-26 21:48 36.90431 -101.98359 38686 ft 542 kts 81°
2026-04-26 21:48 36.91753 -101.89087 38701 ft 542 kts 81°
2026-04-26 21:49 36.93061 -101.79865 38700 ft 542 kts 82°
2026-04-26 21:49 36.94369 -101.70578 38688 ft 541 kts 82°
2026-04-26 21:50 36.95450 -101.62868 38671 ft 541 kts 81°
2026-04-26 21:50 36.96961 -101.52024 38681 ft 541 kts 81°
2026-04-26 21:51 36.98238 -101.42802 38694 ft 541 kts 81°
2026-04-26 21:51 36.99514 -101.33528 38695 ft 541 kts 82°
2026-04-26 21:52 37.00783 -101.24255 38719 ft 540 kts 82°
2026-04-26 21:52 37.02046 -101.14975 38740 ft 540 kts 82°
2026-04-26 21:53 37.03293 -101.05766 38759 ft 540 kts 82°
2026-04-26 21:53 37.04631 -100.96513 38750 ft 540 kts 75°
2026-04-26 21:54 37.06611 -100.87446 38759 ft 540 kts 75°
2026-04-26 21:54 37.08622 -100.78364 38748 ft 540 kts 75°
2026-04-26 21:55 37.10615 -100.69343 38736 ft 540 kts 75°
2026-04-26 21:55 37.12616 -100.60244 38727 ft 540 kts 75°
2026-04-26 21:56 37.14607 -100.51160 38719 ft 539 kts 75°
2026-04-26 21:56 37.16576 -100.42139 38735 ft 539 kts 75°
2026-04-26 21:57 37.18552 -100.33048 38733 ft 539 kts 75°
2026-04-26 21:57 37.20508 -100.24014 38736 ft 539 kts 75°
2026-04-26 21:58 37.22468 -100.14923 38737 ft 540 kts 75°
2026-04-26 21:58 37.24426 -100.05805 38744 ft 540 kts 75°
2026-04-26 21:59 37.26375 -99.96694 38740 ft 540 kts 75°
2026-04-26 21:59 37.28306 -99.87629 38742 ft 541 kts 75°
2026-04-26 22:00 37.30246 -99.78484 38752 ft 541 kts 75°
2026-04-26 22:00 37.32176 -99.69348 38770 ft 541 kts 75°
2026-04-26 22:01 37.34102 -99.60194 38762 ft 540 kts 75°
2026-04-26 22:01 37.36004 -99.51115 38765 ft 540 kts 75°
2026-04-26 22:02 37.37601 -99.43461 38757 ft 540 kts 75°
2026-04-26 22:02 37.39804 -99.32859 38764 ft 538 kts 75°
2026-04-26 22:03 37.41695 -99.23721 38768 ft 539 kts 75°
2026-04-26 22:03 37.43574 -99.14599 38767 ft 538 kts 75°
2026-04-26 22:04 37.45436 -99.05523 38763 ft 538 kts 75°
2026-04-26 22:04 37.47295 -98.96420 38768 ft 537 kts 75°
2026-04-26 22:05 37.49147 -98.87314 38768 ft 536 kts 75°
2026-04-26 22:05 37.50994 -98.78194 38768 ft 536 kts 75°
2026-04-26 22:06 37.52835 -98.69069 38754 ft 536 kts 75°
2026-04-26 22:06 37.54652 -98.60027 38761 ft 535 kts 75°
2026-04-26 22:07 37.56472 -98.50934 38760 ft 535 kts 75°
2026-04-26 22:07 37.57980 -98.43376 38740 ft 535 kts 75°
2026-04-26 22:08 37.60414 -98.34560 38755 ft 532 kts 66°
2026-04-26 22:08 37.63191 -98.25920 38729 ft 529 kts 65°
2026-04-26 22:09 37.66414 -98.15909 38722 ft 529 kts 65°
2026-04-26 22:09 37.68731 -98.08692 38732 ft 529 kts 65°
2026-04-26 22:10 37.71476 -98.00122 38721 ft 529 kts 66°
2026-04-26 22:10 37.74234 -97.91482 38713 ft 528 kts 65°
2026-04-26 22:11 37.76977 -97.82863 38713 ft 528 kts 65°
2026-04-26 22:11 37.79695 -97.74298 38715 ft 528 kts 66°
2026-04-26 22:12 37.82429 -97.65657 38713 ft 528 kts 66°
2026-04-26 22:12 37.85153 -97.57019 38706 ft 527 kts 66°
2026-04-26 22:13 37.87862 -97.48404 38728 ft 525 kts 66°
2026-04-26 22:13 37.90542 -97.39852 38737 ft 525 kts 66°
2026-04-26 22:14 37.93235 -97.31238 38735 ft 525 kts 66°
2026-04-26 22:14 37.95906 -97.22663 38734 ft 525 kts 66°
2026-04-26 22:15 37.98583 -97.14047 38772 ft 524 kts 66°
2026-04-26 22:15 38.01243 -97.05456 38756 ft 522 kts 66°
2026-04-26 22:16 38.03894 -96.96868 38747 ft 522 kts 66°
2026-04-26 22:16 38.06523 -96.88325 38740 ft 523 kts 66°
2026-04-26 22:17 38.09159 -96.79735 38744 ft 520 kts 66°
2026-04-26 22:17 38.11771 -96.71195 38738 ft 517 kts 66°
2026-04-26 22:18 38.14370 -96.62670 38748 ft 517 kts 66°
2026-04-26 22:18 38.16954 -96.54172 38748 ft 517 kts 66°
2026-04-26 22:19 38.18250 -96.49898 37993 ft 518 kts 66°
2026-04-26 22:19 38.19562 -96.45566 36804 ft 528 kts 66°
2026-04-26 22:19 38.20881 -96.41203 36015 ft 528 kts 66°
2026-04-26 22:19 38.22176 -96.36911 35489 ft 523 kts 66°
2026-04-26 22:20 38.23479 -96.32593 34863 ft 521 kts 66°
2026-04-26 22:20 38.24781 -96.28269 34262 ft 520 kts 66°
2026-04-26 22:20 38.26069 -96.23988 33704 ft 516 kts 66°
2026-04-26 22:20 38.27349 -96.19723 33109 ft 513 kts 66°
2026-04-26 22:21 38.28646 -96.15566 32534 ft 507 kts 61°
2026-04-26 22:21 38.30532 -96.11848 31915 ft 494 kts 43°
2026-04-26 22:21 38.32869 -96.08687 31424 ft 487 kts 42°
2026-04-26 22:21 38.35167 -96.05552 30990 ft 481 kts 43°
2026-04-26 22:22 38.37402 -96.02401 30492 ft 476 kts 43°
2026-04-26 22:22 38.39635 -95.99283 29957 ft 473 kts 43°
2026-04-26 22:22 38.41858 -95.96197 29360 ft 471 kts 43°
2026-04-26 22:22 38.44038 -95.93171 28856 ft 466 kts 43°
2026-04-26 22:23 38.46221 -95.90139 28373 ft 461 kts 43°
2026-04-26 22:23 38.48383 -95.87135 27894 ft 457 kts 43°
2026-04-26 22:23 38.50525 -95.84157 27411 ft 453 kts 43°
2026-04-26 22:23 38.52632 -95.81222 26950 ft 449 kts 44°
2026-04-26 22:24 38.54738 -95.78288 26540 ft 445 kts 44°
2026-04-26 22:24 38.56812 -95.75396 26194 ft 439 kts 44°
2026-04-26 22:24 38.58871 -95.72521 25756 ft 436 kts 44°
2026-04-26 22:24 38.60917 -95.69663 25285 ft 435 kts 44°
2026-04-26 22:25 38.62961 -95.66803 24825 ft 434 kts 44°
2026-04-26 22:25 38.64995 -95.63957 24374 ft 433 kts 44°
2026-04-26 22:25 38.67023 -95.61115 23908 ft 431 kts 44°
2026-04-26 22:25 38.69018 -95.58317 23475 ft 431 kts 44°
2026-04-26 22:26 38.71044 -95.55473 22951 ft 430 kts 44°
2026-04-26 22:26 38.73058 -95.52643 22472 ft 428 kts 45°
2026-04-26 22:26 38.75060 -95.49828 22022 ft 425 kts 45°
2026-04-26 22:26 38.77045 -95.47035 21607 ft 422 kts 45°
2026-04-26 22:27 38.78992 -95.44294 21152 ft 420 kts 45°
2026-04-26 22:27 38.80955 -95.41525 20692 ft 418 kts 45°
2026-04-26 22:27 38.82916 -95.38759 20223 ft 417 kts 45°
2026-04-26 22:27 38.84862 -95.36010 19813 ft 414 kts 45°
2026-04-26 22:28 38.86773 -95.33309 19381 ft 412 kts 46°
2026-04-26 22:28 38.88701 -95.30582 18949 ft 410 kts 45°
2026-04-26 22:28 38.90623 -95.27862 18457 ft 409 kts 45°
2026-04-26 22:28 38.92511 -95.25188 18053 ft 406 kts 45°
2026-04-26 22:29 38.94401 -95.22507 17586 ft 404 kts 45°
2026-04-26 22:29 38.96277 -95.19846 17147 ft 400 kts 45°
2026-04-26 22:29 38.98140 -95.17201 16722 ft 397 kts 46°
2026-04-26 22:29 38.99989 -95.14573 16299 ft 394 kts 46°
2026-04-26 22:30 39.01804 -95.11989 15829 ft 393 kts 47°
2026-04-26 22:30 39.03628 -95.09390 15423 ft 390 kts 47°
2026-04-26 22:30 39.05442 -95.06803 15013 ft 387 kts 47°
2026-04-26 22:30 39.07244 -95.04233 14588 ft 384 kts 48°
2026-04-26 22:31 39.09030 -95.01682 14191 ft 383 kts 48°
2026-04-26 22:31 39.10809 -94.99139 13793 ft 381 kts 49°
2026-04-26 22:31 39.12576 -94.96613 13471 ft 376 kts 49°
2026-04-26 22:31 39.14305 -94.94139 13318 ft 366 kts 50°
2026-04-26 22:32 39.15967 -94.91757 13169 ft 356 kts 50°
2026-04-26 22:32 39.17828 -94.89704 12850 ft 353 kts 28°
2026-04-26 22:32 39.20136 -94.88710 12467 ft 348 kts 10°
2026-04-26 22:32 39.22503 -94.88091 12107 ft 345 kts
2026-04-26 22:33 39.24834 -94.87485 11985 ft 335 kts
2026-04-26 22:33 39.29185 -94.86354 11914 ft 310 kts
2026-04-26 22:33 39.31318 -94.85801 11397 ft 315 kts
2026-04-26 22:34 39.33474 -94.85240 10769 ft 315 kts 10°
2026-04-26 22:34 39.35624 -94.84683 10158 ft 315 kts 10°
2026-04-26 22:34 39.37774 -94.84127 9558 ft 312 kts 10°
2026-04-26 22:34 39.39864 -94.83585 9089 ft 305 kts 11°
2026-04-26 22:35 39.41913 -94.83049 8745 ft 294 kts 11°
2026-04-26 22:35 39.43844 -94.82539 8729 ft 270 kts 11°
2026-04-26 22:35 39.45617 -94.82072 8716 ft 250 kts 11°
2026-04-26 22:35 39.47273 -94.81625 8709 ft 239 kts 11°
2026-04-26 22:36 39.48882 -94.81191 8725 ft 239 kts 11°
2026-04-26 22:36 39.50497 -94.80603 8598 ft 240 kts 27°
2026-04-26 22:36 39.51666 -94.79195 8279 ft 225 kts 71°
2026-04-26 22:36 39.51843 -94.77344 7982 ft 202 kts 115°
2026-04-26 22:37 39.51104 -94.75928 7798 ft 186 kts 146°
2026-04-26 22:37 39.50022 -94.75020 7737 ft 185 kts 153°
2026-04-26 22:37 39.48990 -94.73988 7655 ft 188 kts 145°
2026-04-26 22:37 39.48026 -94.72857 7491 ft 190 kts 143°
2026-04-26 22:38 39.47065 -94.71653 7278 ft 192 kts 141°
2026-04-26 22:38 39.46125 -94.70414 7034 ft 192 kts 140°
2026-04-26 22:38 39.45219 -94.69150 6807 ft 190 kts 138°
2026-04-26 22:38 39.44326 -94.67919 6551 ft 189 kts 139°
2026-04-26 22:39 39.43437 -94.66669 6323 ft 188 kts 139°
2026-04-26 22:39 39.42562 -94.65426 6107 ft 185 kts 138°
2026-04-26 22:39 39.41703 -94.64196 5886 ft 182 kts 136°
2026-04-26 22:39 39.40875 -94.63004 5749 ft 174 kts 137°
2026-04-26 22:40 39.40082 -94.61863 5680 ft 174 kts 138°
2026-04-26 22:40 39.39253 -94.60682 5599 ft 180 kts 139°
2026-04-26 22:40 39.38409 -94.59473 5478 ft 181 kts 140°
2026-04-26 22:40 39.37546 -94.58282 5425 ft 181 kts 139°
2026-04-26 22:41 39.36703 -94.57060 5372 ft 182 kts 138°
2026-04-26 22:41 39.35854 -94.55845 5214 ft 183 kts 133°
2026-04-26 22:41 39.35027 -94.54599 5115 ft 181 kts 142°
2026-04-26 22:41 39.33978 -94.53817 4957 ft 176 kts 169°
2026-04-26 22:42 39.32750 -94.53735 4735 ft 178 kts 182°
2026-04-26 22:42 39.31518 -94.53926 4495 ft 178 kts 186°
2026-04-26 22:42 39.30290 -94.54187 4203 ft 175 kts 188°
2026-04-26 22:42 39.29111 -94.54473 3995 ft 171 kts 191°
2026-04-26 22:43 39.27937 -94.54791 3732 ft 172 kts 190°
2026-04-26 22:43 39.26774 -94.55111 3487 ft 167 kts 189°
2026-04-26 22:43 39.25671 -94.55412 3245 ft 164 kts 188°
2026-04-26 22:43 39.24540 -94.55730 2974 ft 166 kts 192°
2026-04-26 22:44 39.23440 -94.56066 3085 ft 165 kts 191°
2026-04-26 22:44 39.22262 -94.56393 1945 ft 187 kts 190°
2026-04-26 22:44 39.21065 -94.56685 1920 ft 165 kts 190°
2026-04-26 22:44 39.20059 -94.57067 1881 ft 138 kts 194°
2026-04-26 22:45 39.19096 -94.57355 1681 ft 154 kts 189°
2026-04-26 22:45 39.18102 -94.57648 1698 ft 142 kts 194°
2026-04-26 22:45 39.17167 -94.57951 1569 ft 139 kts 189°
2026-04-26 22:45 39.16156 -94.58240 1191 ft 155 kts 188°
2026-04-26 22:46 39.15102 -94.58494 1005 ft 152 kts 193°
2026-04-26 22:46 39.14070 -94.58791 873 ft 151 kts 193°
2026-04-26 22:46 39.13062 -94.59076 775 ft 148 kts 193°
2026-04-26 22:46 39.12124 -94.59349 754 ft 118 kts 192°
2026-04-26 22:47 39.11640 -94.59486 748 ft 42 kts 193°
2026-04-26 22:47 39.11499 -94.59565 748 ft 17 kts 248°
2026-04-26 22:47 39.11507 -94.59652 750 ft 2 kts 315°
2026-04-26 22:47 39.11519 -94.59667 751 ft 2 kts 315°
2026-04-26 22:48 39.11529 -94.59680 751 ft 2 kts 315°
2026-04-26 22:48 39.11538 -94.59690 751 ft 2 kts 315°
2026-04-26 22:48 39.11564 -94.59727 752 ft 10 kts 310°
2026-04-26 22:48 39.11626 -94.59811 754 ft 15 kts 321°
2026-04-26 22:49 39.11712 -94.59880 753 ft 14 kts 339°
2026-04-26 22:49 39.11807 -94.59890 755 ft 13 kts
2026-04-26 22:49 39.11890 -94.59887 756 ft 11 kts
2026-04-26 22:49 39.11976 -94.59884 754 ft 15 kts
2026-04-26 22:50 39.12098 -94.59876 754 ft 19 kts 12°
2026-04-26 22:50 39.12195 -94.59777 753 ft 18 kts 50°
2026-04-26 22:50 39.12273 -94.59659 753 ft 17 kts 49°
2026-04-26 22:50 39.12327 -94.59532 757 ft 15 kts 78°
2026-04-26 22:51 39.12365 -94.59429 756 ft 12 kts 30°
2026-04-26 22:51 39.12448 -94.59398 754 ft 12 kts 13°
2026-04-26 22:51 39.12523 -94.59376 756 ft 10 kts 13°
2026-04-26 22:51 39.12583 -94.59358 760 ft 9 kts 13°
2026-04-26 22:52 39.12640 -94.59345 757 ft 3 kts 352°
2026-04-26 22:52 39.12662 -94.59367 759 ft 5 kts 314°
2026-04-26 22:52 39.12683 -94.59377 756 ft 2 kts 351°
2026-04-26 22:52 39.12694 -94.59385 758 ft 2 kts 312°
2026-04-26 22:53 39.12701 -94.59410 758 ft 4 kts 282°
2026-04-26 22:53 39.12703 -94.59428 757 ft 2 kts 277°
2026-04-26 22:53 39.12703 -94.59429 757 ft 0 kts 277°